Wind_Speed
21 21 22 24 22 14 13 12 11 11 10 10 8 7 7 7 7 6 5 6 6 6 6 5 5 5 4 3 3 3 3 3 3 4 4 4 4 4 4 5 6 6 6 6 7 7 7 6 6
21 21 24 23 15 12 13 13 13 13 12 11 10 8 8 7 7 6 6 6 6 6 6 5 5 4 4 3 3 2 2 2 3 3 3 4 4 4 4 5 6 7 7 6 6 6 6 6 5
22 22 23 16 11 12 12 13 13 13 13 12 11 10 9 8 7 7 6 6 6 5 5 5 5 5 4 3 3 2 2 1 2 2 2 3 3 4 4 5 5 7 7 6 6 6 6 5 5
23 25 20 11 12 13 13 13 14 13 13 13 12 11 10 9 8 8 7 6 6 5 5 5 5 4 4 3 3 2 2 1 1 2 2 3 3 4 4 5 6 7 7 7 7 6 6 6 6
26 23 14 12 13 12 13 14 14 13 13 13 13 12 12 11 10 8 8 7 6 6 5 4 4 4 3 3 3 2 2 2 1 2 2 3 3 4 5 5 6 7 6 7 7 7 6 6 5
24 17 11 11 12 12 13 13 13 13 13 14 14 14 14 13 11 10 9 8 7 7 6 5 4 4 3 3 3 3 2 2 1 2 2 2 3 4 4 5 6 7 6 6 6 7 6 6 6
18 10 9 10 11 12 12 13 13 14 15 14 15 15 15 14 13 12 10 9 9 8 7 7 5 4 3 3 2 3 2 2 1 1 2 2 3 3 4 4 5 5 5 5 6 6 6 6 6
14 10 9 9 10 11 11 12 13 13 15 15 15 15 15 14 14 13 12 10 9 9 8 7 6 5 3 2 2 2 2 2 1 1 2 2 2 2 3 3 4 5 5 6 6 6 6 6 7
11 9 8 8 9 10 11 12 12 13 15 15 16 16 16 15 14 13 13 11 10 10 9 8 6 5 3 2 1 1 1 2 1 1 2 2 1 2 3 3 4 5 5 5 6 6 6 7 7
9 7 6 7 8 9 10 12 13 15 16 17 17 17 16 15 14 14 13 12 11 11 10 9 8 6 4 3 2 1 1 1 0 0 1 1 2 3 3 4 4 5 5 6 6 6 7 7 7
8 6 6 7 7 9 11 13 14 16 16 17 17 17 16 15 14 14 13 13 12 12 11 10 9 6 4 3 2 1 1 1 1 0 1 1 2 3 4 4 5 5 5 6 6 6 7 6 6
6 6 7 7 8 10 10 11 12 14 15 16 17 17 17 16 16 16 15 13 12 11 11 11 10 7 4 4 3 2 2 2 1 1 0 1 1 2 3 5 5 5 5 5 5 6 6 5 5
4 6 7 8 9 9 10 10 12 14 15 16 17 18 18 18 18 17 17 14 12 11 12 11 9 7 6 5 4 3 2 2 2 2 1 1 1 2 2 4 4 4 5 5 5 5 4 4 4
4 5 7 8 8 8 9 11 13 15 17 17 17 18 18 19 18 18 16 14 13 12 11 11 10 8 6 5 4 3 3 3 3 3 2 2 2 2 2 3 3 3 4 5 5 4 4 4 3
5 5 7 8 8 8 8 11 14 15 16 17 18 18 19 19 18 17 16 15 13 12 12 12 10 9 8 6 4 3 3 3 3 3 3 2 2 2 2 3 4 3 3 4 3 3 3 3 2
4 5 4 7 8 8 10 11 13 15 15 17 18 18 19 18 18 17 17 16 14 13 13 12 11 9 8 6 5 3 3 3 3 3 3 3 3 3 3 3 4 3 3 3 3 2 2 1 1
2 2 2 6 8 7 8 10 13 14 15 17 17 17 18 18 18 18 17 16 15 15 14 13 12 10 8 6 5 4 3 3 3 3 3 3 3 3 3 4 5 4 3 3 3 2 2 2 1
2 2 3 5 6 5 6 9 11 13 14 16 17 17 17 18 18 18 18 17 16 15 15 14 13 11 8 7 5 3 3 3 3 3 3 4 4 4 4 4 5 4 3 3 3 3 3 3 2
5 4 4 4 4 4 5 7 10 14 15 16 16 17 17 18 18 18 18 18 17 16 15 15 14 12 10 8 5 3 2 3 4 3 4 4 4 5 4 5 6 5 5 4 4 5 4 4 4
7 5 5 6 5 4 7 7 8 12 14 16 16 17 17 16 17 17 18 17 18 17 16 15 14 13 11 8 6 4 2 3 3 4 4 4 5 5 5 6 6 6 6 6 6 6 6 6 5
8 7 7 6 6 4 9 10 10 12 13 15 17 17 17 17 17 18 18 18 18 18 17 16 15 13 11 9 7 6 4 3 3 4 4 5 5 6 6 6 7 8 8 8 8 8 8 8 8
7 8 7 6 5 5 7 11 11 11 13 15 15 16 16 17 17 18 18 18 18 18 17 16 15 13 11 9 7 6 5 4 4 4 4 4 5 5 6 7 7 8 9 9 9 10 10 9 9
10 9 7 6 5 5 6 9 11 11 12 13 14 15 17 17 17 18 18 18 18 17 17 16 15 13 12 9 8 7 6 5 5 5 5 6 6 6 6 7 8 9 9 10 10 11 11 11 11
11 9 6 5 5 8 8 9 10 11 12 13 14 15 16 16 17 18 18 18 17 17 16 16 15 13 12 10 9 8 7 6 5 5 5 6 7 7 7 8 9 9 10 10 11 11 11 12 12
12 9 5 6 8 10 10 10 12 13 14 14 14 15 15 16 17 18 18 18 18 17 17 16 15 14 12 10 10 8 9 7 6 6 6 6 7 7 8 9 9 9 10 11 11 11 12 12 13
13 11 8 8 9 9 9 11 12 12 14 15 14 14 15 16 17 17 17 18 18 18 17 16 15 14 13 12 11 10 10 8 7 7 7 7 8 8 9 9 9 10 10 11 11 12 13 13 14
14 13 11 11 11 10 11 14 14 12 12 13 13 14 14 15 15 16 17 18 18 18 18 18 16 15 14 13 12 12 11 8 7 7 8 7 8 9 9 9 9 10 10 11 12 12 13 14 15
16 14 13 12 11 10 11 14 15 12 11 13 14 14 14 15 15 16 17 18 18 18 18 18 17 16 15 14 13 12 10 9 8 8 8 8 9 10 10 10 11 11 12 12 13 13 14 15 16
18 16 15 14 12 11 13 16 16 15 13 14 15 14 14 14 15 16 16 18 18 19 19 19 18 17 16 15 14 12 10 9 9 9 10 10 11 11 11 11 12 13 13 14 15 15 15 15 16
19 18 17 16 15 14 14 18 14 14 15 15 15 15 15 15 15 16 17 18 18 19 20 19 18 18 17 16 15 14 12 11 11 11 11 12 12 12 13 13 13 14 14 15 15 16 17 17 17
Wind_Direction
74 71 66 60 55 50 50 47 44 45 48 49 50 51 51 46 44 44 48 54 51 47 50 48 45 47 50 49 53 69 80 94 104 109 111 110 104 108 106 106 106 111 112 106 98 99 103 107 111
72 67 61 59 55 45 45 45 44 47 47 46 44 42 45 44 45 43 46 49 48 43 43 43 41 38 35 34 39 52 64 81 96 109 111 106 99 105 104 106 105 102 103 104 98 97 100 105 109
70 64 60 55 50 46 46 45 45 46 47 48 45 42 42 43 46 43 42 44 46 43 41 41 42 36 29 23 23 27 35 65 91 101 103 105 102 101 102 101 100 95 94 96 93 97 95 96 104
73 62 55 51 53 49 46 45 41 42 43 45 44 43 44 44 43 40 39 41 42 41 39 37 36 34 29 21 16 18 28 45 68 76 90 103 103 98 104 103 98 93 90 88 93 97 92 91 95
64 59 48 34 46 44 42 38 38 39 41 42 42 44 43 42 40 39 37 36 38 40 35 33 30 26 18 13 9 12 23 34 55 84 93 101 104 101 100 99 98 97 94 94 92 91 91 92 96
62 50 33 34 39 35 39 38 35 38 39 38 35 39 40 38 36 35 36 35 33 35 32 32 27 22 12 10 11 14 28 42 61 86 95 92 107 99 98 99 96 94 90 91 95 90 92 99 101
76 65 39 36 31 33 32 35 32 35 36 38 35 35 36 36 35 33 33 34 31 31 29 26 22 23 15 12 12 19 29 41 80 109 105 102 103 100 99 101 102 96 93 92 95 91 93 99 99
79 72 50 32 27 31 27 28 33 34 35 37 37 34 33 32 32 33 33 32 29 24 22 19 14 12 16 18 14 20 33 36 54 102 111 116 113 105 106 109 112 107 101 99 97 88 94 98 102
77 65 48 29 26 30 28 23 26 29 29 37 36 33 31 29 27 29 31 30 28 22 20 14 13 15 21 10 0 8 30 41 49 75 114 111 116 120 117 114 118 113 104 105 100 95 93 99 103
69 66 45 34 31 35 31 25 19 25 25 26 28 28 27 26 24 25 27 25 25 25 21 14 8 7 5 352 332 345 353 28 14 32 106 114 127 138 133 123 118 114 107 105 101 101 101 99 98
66 55 45 46 37 40 34 27 18 19 20 20 23 23 23 23 25 23 20 22 22 19 19 17 9 6 352 334 325 291 264 281 311 338 27 61 131 142 139 130 126 117 113 107 104 106 105 99 99
63 60 50 41 38 38 38 30 22 17 19 18 21 20 20 20 20 20 18 18 18 20 18 14 9 9 357 325 314 287 265 276 273 290 346 93 115 128 134 136 132 124 119 117 116 112 107 104 103
54 51 49 36 33 32 31 29 20 14 16 17 18 19 19 18 19 19 17 16 16 16 16 10 7 4 357 339 315 285 263 262 260 269 246 219 166 147 147 143 136 130 128 127 127 124 117 108 106
87 58 42 31 29 26 19 19 16 9 10 14 16 16 18 19 17 15 14 14 13 13 10 8 5 0 351 343 330 289 263 270 270 271 255 243 225 195 177 172 159 149 144 141 135 131 124 116 114
76 53 24 6 13 10 11 14 8 5 7 10 13 14 15 14 14 14 14 14 13 13 11 7 2 358 350 343 329 302 276 260 269 277 266 247 229 218 211 193 179 168 158 156 150 147 133 128 122
73 44 5 335 344 1 7 2 4 1 6 10 11 12 12 10 11 13 12 13 14 11 6 4 1 357 353 347 334 298 266 262 273 276 270 249 237 226 214 213 184 175 174 175 175 176 171 160 150
87 21 314 317 336 352 357 358 359 360 4 7 8 8 9 10 10 11 12 11 11 7 3 2 359 354 353 351 341 307 258 255 262 272 275 260 250 232 215 201 193 198 198 204 208 212 222 235 237
182 222 260 297 317 336 349 359 358 358 359 1 3 5 7 9 10 10 10 10 8 4 3 2 360 356 354 349 344 332 265 248 247 263 264 260 251 235 225 214 212 216 217 217 224 233 247 248 250
220 215 234 270 301 318 320 333 354 355 356 358 1 3 5 7 9 8 9 10 9 8 5 4 2 358 356 355 356 353 294 263 250 259 260 259 248 236 232 230 231 231 233 237 243 245 251 252 259
233 225 232 265 282 306 308 322 347 353 351 354 359 0 3 8 6 4 5 6 7 6 4 2 1 357 358 355 353 344 315 283 269 265 259 255 248 240 244 240 237 240 245 247 250 252 256 256 260
227 234 232 249 274 305 324 325 335 340 346 348 354 358 1 3 2 3 2 3 3 2 1 359 359 357 353 353 350 345 332 298 275 265 259 257 250 246 248 247 247 249 252 253 255 257 259 261 262
228 245 241 237 262 278 300 306 314 327 334 342 350 352 358 358 358 -0 359 359 0 1 0 360 358 359 354 348 345 340 322 293 274 267 263 265 258 254 254 255 256 258 258 257 257 259 260 262 266
215 232 249 242 227 258 282 298 306 315 324 332 340 345 353 354 354 357 357 357 359 359 359 358 357 358 358 351 346 340 329 311 294 281 270 268 266 263 262 262 261 263 267 264 263 263 263 263 266
221 221 240 262 256 263 275 278 288 299 314 326 332 342 348 350 352 355 357 357 357 357 355 355 357 357 357 355 350 348 339 323 309 294 281 274 268 264 266 269 270 269 270 269 267 267 266 264 266
222 211 225 262 267 260 267 269 282 299 310 318 328 338 344 348 351 352 355 356 355 354 353 354 357 356 354 351 347 345 343 330 312 303 294 288 282 272 269 273 275 273 271 271 270 269 268 268 269
221 211 217 243 266 269 262 252 276 295 305 314 324 333 338 343 347 347 350 352 352 352 353 354 354 354 352 350 344 337 331 325 319 313 308 300 294 286 273 274 274 274 271 271 271 273 270 272 276
217 213 218 244 267 274 263 261 272 288 300 310 319 325 332 337 340 342 346 349 351 352 352 352 350 350 349 346 342 335 330 325 321 316 308 304 297 293 286 283 279 277 276 274 276 277 276 277 279
222 224 224 229 245 261 269 267 279 286 294 307 315 322 328 332 334 336 342 345 348 351 351 351 350 346 343 339 337 334 330 327 323 318 314 308 304 302 292 283 282 281 281 283 282 283 281 280 281
227 223 226 230 226 244 267 272 272 279 282 300 307 316 322 325 329 332 340 341 343 346 347 347 347 347 344 339 336 332 326 322 319 318 316 313 308 308 306 293 286 284 282 282 284 286 287 286 287
231 228 229 229 229 233 257 277 276 283 282 294 304 309 315 318 321 328 335 335 338 341 342 343 344 343 342 340 337 331 325 322 320 317 314 311 311 308 308 303 295 291 288 286 286 286 286 286 286
Height
5910 5909 5907 5905 5906 5908 5906 5905 5903 5901 5899 5898 5897 5895 5894 5893 5893 5894 5891 5889 5889 5889 5888 5888 5888 5888 5888 5888 5888 5887 5887 5887 5887 5887 5886 5886 5886 5886 5886 5886 5886 5886 5886 5887 5887 5887 5888 5888 5889
5913 5911 5909 5910 5912 5911 5909 5908 5906 5904 5902 5900 5898 5897 5896 5894 5894 5893 5891 5891 5891 5890 5890 5890 5889 5889 5889 5889 5889 5889 5889 5888 5888 5888 5888 5887 5887 5887 5887 5887 5887 5887 5887 5888 5888 5888 5889 5889 5890
5915 5913 5913 5916 5916 5914 5913 5910 5908 5906 5904 5902 5901 5899 5898 5896 5895 5894 5893 5892 5892 5891 5891 5891 5890 5890 5890 5890 5890 5890 5890 5889 5889 5889 5889 5888 5888 5888 5888 5888 5888 5888 5888 5889 5889 5889 5890 5890 5891
5917 5916 5919 5921 5918 5917 5915 5913 5911 5908 5906 5904 5903 5901 5899 5898 5896 5895 5894 5893 5893 5892 5892 5891 5891 5891 5891 5891 5891 5891 5891 5890 5890 5890 5890 5889 5889 5889 5889 5889 5889 5889 5890 5890 5890 5891 5891 5891 5892
5918 5921 5925 5924 5921 5920 5918 5915 5913 5911 5908 5906 5904 5902 5900 5899 5898 5896 5895 5895 5894 5893 5892 5892 5892 5892 5892 5892 5892 5891 5891 5891 5891 5891 5891 5891 5891 5891 5890 5890 5890 5891 5891 5891 5892 5892 5892 5892 5892
5923 5928 5930 5926 5925 5923 5920 5918 5916 5913 5910 5908 5906 5904 5902 5901 5899 5898 5897 5896 5895 5894 5894 5893 5893 5892 5892 5892 5892 5892 5892 5892 5892 5892 5892 5892 5892 5892 5892 5892 5892 5892 5892 5893 5893 5893 5893 5893 5893
5930 5933 5932 5930 5928 5926 5923 5921 5918 5915 5913 5911 5908 5907 5905 5903 5901 5899 5898 5897 5896 5896 5895 5894 5894 5893 5893 5893 5893 5893 5893 5893 5892 5892 5893 5893 5893 5893 5893 5893 5893 5893 5893 5893 5894 5894 5894 5894 5894
5934 5935 5934 5933 5931 5929 5926 5923 5921 5918 5915 5912 5911 5909 5907 5905 5903 5901 5899 5898 5898 5897 5896 5895 5895 5894 5893 5893 5893 5893 5893 5893 5893 5893 5893 5893 5893 5893 5894 5894 5894 5894 5894 5895 5895 5895 5895 5895 5895
5938 5939 5937 5935 5933 5931 5928 5925 5922 5919 5917 5913 5913 5911 5909 5907 5905 5903 5901 5900 5899 5897 5897 5896 5896 5895 5894 5894 5894 5894 5894 5894 5894 5894 5894 5894 5894 5894 5894 5895 5895 5895 5895 5896 5896 5896 5896 5896 5897
5939 5940 5939 5937 5935 5933 5930 5927 5924 5920 5919 5916 5915 5913 5910 5908 5906 5904 5902 5901 5899 5898 5897 5896 5896 5895 5894 5894 5894 5894 5894 5894 5894 5895 5895 5895 5895 5895 5895 5896 5896 5896 5896 5897 5897 5897 5898 5898 5898
5941 5941 5940 5938 5936 5934 5932 5930 5927 5924 5921 5919 5917 5915 5912 5910 5908 5905 5903 5901 5900 5900 5899 5898 5896 5896 5895 5895 5894 5895 5895 5895 5895 5895 5895 5895 5896 5896 5896 5896 5897 5897 5897 5898 5898 5899 5899 5900 5900
5943 5942 5941 5939 5937 5936 5934 5932 5930 5927 5925 5922 5919 5917 5914 5911 5909 5907 5904 5901 5901 5900 5899 5898 5897 5896 5895 5895 5894 5895 5895 5895 5895 5895 5896 5896 5896 5897 5897 5898 5898 5898 5898 5899 5899 5900 5900 5901 5901
5944 5943 5942 5941 5939 5938 5936 5934 5931 5929 5926 5924 5921 5918 5915 5912 5910 5907 5905 5904 5902 5901 5900 5899 5897 5896 5896 5895 5895 5895 5895 5896 5896 5896 5896 5896 5897 5897 5898 5898 5898 5899 5899 5900 5901 5901 5902 5902 5902
5943 5943 5943 5942 5941 5938 5936 5934 5932 5930 5928 5925 5922 5920 5917 5914 5912 5909 5907 5905 5904 5902 5900 5899 5898 5897 5896 5895 5895 5895 5895 5895 5896 5896 5896 5896 5897 5897 5898 5899 5900 5900 5900 5901 5902 5902 5902 5903 5903
5943 5944 5944 5944 5942 5940 5938 5936 5934 5932 5929 5926 5924 5921 5918 5916 5913 5911 5908 5906 5904 5903 5901 5899 5898 5897 5896 5895 5895 5895 5895 5895 5896 5896 5896 5896 5897 5897 5898 5899 5900 5901 5901 5902 5902 5903 5903 5903 5904
5945 5946 5947 5946 5943 5942 5941 5939 5936 5933 5930 5928 5925 5923 5920 5917 5915 5912 5910 5907 5905 5903 5902 5900 5898 5897 5896 5895 5894 5894 5895 5895 5895 5896 5896 5896 5897 5897 5898 5899 5900 5901 5901 5902 5903 5903 5904 5904 5904
5946 5948 5949 5948 5945 5944 5942 5940 5938 5935 5933 5930 5927 5924 5922 5919 5916 5914 5911 5908 5906 5904 5902 5900 5899 5897 5896 5895 5894 5894 5894 5895 5895 5896 5896 5896 5897 5897 5898 5899 5900 5900 5901 5902 5903 5903 5904 5904 5904
5948 5949 5949 5949 5947 5944 5943 5941 5939 5937 5934 5931 5928 5925 5923 5920 5918 5915 5912 5909 5907 5905 5903 5901 5899 5897 5896 5895 5894 5894 5894 5895 5895 5896 5896 5896 5897 5897 5898 5898 5899 5900 5901 5901 5902 5903 5903 5903 5904
5946 5948 5949 5949 5947 5945 5944 5942 5940 5938 5935 5932 5929 5927 5924 5921 5919 5916 5913 5910 5908 5906 5904 5902 5900 5898 5896 5895 5894 5894 5894 5894 5895 5895 5895 5896 5896 5897 5897 5898 5899 5900 5900 5901 5902 5902 5903 5903 5903
5946 5947 5948 5948 5946 5945 5942 5941 5940 5938 5936 5933 5930 5928 5925 5922 5920 5917 5914 5912 5909 5907 5904 5902 5900 5898 5897 5895 5894 5894 5894 5894 5894 5894 5895 5895 5896 5896 5897 5897 5898 5899 5900 5900 5900 5901 5901 5902 5902
5945 5946 5946 5946 5945 5944 5943 5942 5939 5939 5936 5933 5931 5928 5925 5923 5921 5918 5915 5912 5910 5907 5905 5903 5901 5899 5897 5896 5894 5894 5894 5894 5894 5894 5894 5894 5895 5895 5896 5896 5897 5898 5898 5899 5899 5899 5900 5900 5900
5944 5944 5944 5945 5945 5944 5945 5943 5939 5937 5936 5934 5931 5929 5926 5924 5921 5919 5916 5913 5910 5908 5905 5903 5901 5899 5897 5896 5895 5894 5894 5894 5894 5894 5894 5894 5894 5895 5895 5895 5896 5896 5897 5897 5897 5898 5898 5898 5898
5941 5942 5942 5943 5943 5943 5944 5943 5939 5937 5935 5933 5931 5928 5927 5925 5922 5919 5917 5914 5911 5908 5906 5903 5901 5899 5898 5896 5895 5894 5893 5893 5893 5893 5893 5893 5893 5893 5894 5894 5894 5895 5895 5895 5895 5895 5896 5896 5896
5939 5940 5941 5942 5943 5943 5943 5943 5939 5936 5935 5934 5931 5929 5928 5925 5922 5920 5917 5914 5912 5909 5906 5903 5901 5899 5898 5897 5895 5894 5893 5892 5892 5892 5892 5892 5892 5892 5892 5892 5893 5893 5893 5893 5893 5893 5893 5893 5894
5936 5939 5941 5942 5942 5941 5942 5941 5938 5936 5935 5933 5930 5929 5928 5925 5923 5920 5917 5915 5912 5910 5907 5904 5902 5900 5898 5897 5895 5894 5893 5892 5892 5891 5891 5891 5890 5890 5890 5890 5890 5890 5891 5891 5891 5891 5891 5890 5890
5934 5937 5940 5941 5941 5940 5940 5940 5938 5935 5935 5933 5930 5929 5927 5925 5922 5919 5917 5914 5912 5910 5907 5905 5902 5900 5898 5897 5895 5894 5893 5891 5891 5890 5890 5889 5889 5888 5888 5888 5888 5888 5888 5888 5888 5888 5888 5888 5887
5931 5934 5937 5939 5938 5939 5937 5936 5934 5934 5934 5932 5930 5929 5926 5924 5922 5919 5916 5914 5912 5910 5907 5905 5903 5900 5898 5897 5895 5894 5892 5890 5889 5889 5888 5887 5887 5886 5886 5886 5885 5885 5885 5885 5885 5885 5885 5884 5884
5929 5931 5934 5935 5937 5937 5937 5933 5932 5931 5931 5930 5929 5928 5926 5924 5922 5919 5917 5915 5912 5910 5907 5905 5902 5900 5898 5896 5894 5892 5891 5889 5888 5887 5886 5886 5884 5884 5883 5883 5883 5883 5882 5882 5882 5882 5881 5881 5880
5925 5928 5929 5932 5934 5936 5935 5933 5930 5929 5928 5928 5927 5926 5925 5923 5921 5918 5915 5914 5912 5909 5907 5904 5902 5900 5898 5895 5893 5891 5890 5888 5887 5886 5885 5884 5883 5882 5881 5880 5880 5880 5880 5879 5879 5879 5878 5877 5877
5922 5924 5927 5929 5930 5932 5932 5930 5926 5925 5925 5926 5925 5924 5923 5922 5920 5918 5916 5914 5912 5909 5906 5904 5901 5899 5897 5895 5892 5890 5889 5887 5886 5885 5884 5883 5881 5880 5879 5878 5877 5877 5876 5876 5875 5875 5874 5874 5873